Location: *
(42.0175°N, 9.4056°E)
Time: 20:38:43
(UTC+00:00)

SL-08 ROCKET BODY - Pass Details

Date: 25 August 2019
Orbit: 897 x 963 km, 82.9° (Epoch: 13 October)

Event Time Altitude Azimuth Distance (km) Brightness Sun altitude
Rises 19:40:25 0° 354° (N) 3,539 8.0 -16.5°
Reaches altitude 10° 19:42:55 10° 356° (N) 2,588 7.2 -16.9°
Maximum altitude 19:48:47 72° 81° (E) 943 4.3 -17.8°
Enters shadow 19:52:34 23° 162° (SSE) 1,818 5.5 -18.4°
